[[{"header":{"parameterUnit":"m.s-1","parameterCategory":1,"la1":30.2991,"la2":30.254,"lo1":-89.0895,"lo2":-89.0444,"dy":0.0017,"dx":0.0017,"nx":28,"ny":28,"refTime":"2025-08-31T21:00:00:Z","depth":0,"parameterNumber":2,"parameterNumberName":"U-component_of_WINDS"},"data":[0,0,0,0,0,0,0,0,0,0,0,0,0,0,0,0,0,0,0,0,0,0,0,0,0,0,0,0,0,0,0,0,0,0,0,0,0,0,0,0,0,0,0,0,0,0,0,0,0,0,0,0,0,0,0,0,0,0,-5.3441,-5.3443,0,-5.3663,-5.3666,-5.3668,-5.3592,-5.3587,-5.3582,-5.3578,-5.3804,-5.3814,-5.3825,0,0,0,0,0,0,0,0,0,0,0,0,0,-5.2949,-5.2959,-5.3441,-5.3444,-5.3446,-5.3663,-5.3666,-5.3669,-5.3593,-5.3587,-5.3581,-5.3575,-5.3801,-5.3813,-5.3826,0,0,0,0,0,0,0,0,0,0,0,0,0,-5.3166,-5.2962,-5.344,-5.3435,-5.3436,-5.3662,-5.3666,-5.367,-5.3594,-5.3587,-5.3579,-5.3573,-5.3796,-5.3812,-5.3827,-5.4072,0,0,-5.3876,-5.3883,0,0,0,0,0,0,0,0,-5.3154,-5.3184,-5.3433,-5.3435,-5.3438,-5.3592,-5.3575,-5.3805,-5.3596,-5.3534,-5.3577,-5.3569,-5.3739,-5.3759,-5.3817,-5.4083,-5.4092,-5.3877,-5.3887,-5.3894,-5.3898,0,0,0,0,0,0,0,-5.3139,-5.3174,-5.3529,-5.3436,-5.3439,-5.342,-5.3443,-5.3619,-5.3675,-5.3539,-5.3534,-5.3561,-5.3739,-5.3802,-5.3822,-5.4096,-5.3877,-5.3891,-5.3901,-5.3907,-5.4573,-5.4581,0,0,0,0,0,0,-5.3123,-5.3162,-5.3522,-5.3535,-5.3275,-5.3435,-5.3461,-5.355,-5.3673,-5.3685,-5.3567,-5.3557,-5.3779,-5.3804,-5.383,-5.4124,-5.3894,-5.3909,-5.3918,-5.4565,-5.4575,-5.4583,0,0,0,0,0,0,-5.3113,-5.3156,-5.3513,-5.3348,-5.3392,-5.3452,-5.3553,-5.3558,-5.3621,-5.3695,-5.3704,-5.3621,-5.3774,-5.3807,-5.4012,-5.413,-5.3916,-5.393,-5.4555,-5.4568,-5.4579,-5.4714,0,0,0,0,0,0,-5.3099,-5.3153,-5.3246,-5.335,-5.3401,-5.3692,-5.356,-5.3568,-5.3649,-5.3637,-5.3747,-5.3759,-5.3771,-5.3989,-5.4028,-5.4148,-5.3942,-5.4545,-5.4561,-5.4575,-5.4699,-5.4729,-5.4755,0,0,0,0,0,-5.3082,-5.3275,-5.3251,-5.3295,-5.3519,-5.3699,-5.3728,-5.3738,-5.3659,-5.3753,-5.38,-5.3755,-5.4112,-5.4011,-5.4054,-5.4181,-5.4537,-5.4556,-5.4574,-5.4686,-5.4723,-5.4754,0,0,0,0,0,0,-5.3182,-5.3288,-5.3263,-5.3496,-5.3589,-5.3686,-5.3805,-5.3777,-5.3894,-5.3878,-5.3885,-5.3911,-5.4122,-5.4172,-5.4058,-5.4424,-5.4312,-5.434,-5.4383,-5.4419,-5.4446,-5.4429,-5.3956,0,0,0,0,0,-5.3231,-5.3369,-5.3454,-5.3652,-5.37,-5.3745,-5.3824,-5.3824,-5.392,-5.3959,-5.4021,-5.4116,-5.4249,-5.4337,-5.4464,-5.4706,-5.4729,-5.4815,-5.4843,-5.4865,-5.4889,-5.5021,-5.506,-5.4644,-5.4644,-5.4643,0,0,-5.3334,-5.3409,-5.3496,-5.3674,-5.3746,-5.3888,-5.3778,-5.3933,-5.4038,-5.3982,-5.4179,-5.4229,-5.4336,-5.456,-5.4663,-5.4609,-5.5009,-5.4889,-5.4906,-5.4918,-5.5044,-5.5083,-5.5118,-5.4656,-5.4654,-5.4652,0,0,-5.3594,-5.3665,-5.3837,-5.3912,-5.4023,-5.4052,-5.4094,-5.4196,-5.4226,-5.4425,-5.4386,-5.4511,-5.4741,-5.4818,-5.4888,-5.5179,-5.5142,-5.522,-5.5365,-5.5494,-5.5526,-5.5556,-5.5658,-5.5695,-5.5244,-5.5244,-5.5245,0,-5.3707,-5.392,-5.3929,-5.4088,-5.4167,-5.4124,-5.4298,-5.437,-5.4517,-5.4572,-5.451,-5.4798,-5.4867,-5.5109,-5.518,-5.5238,-5.5285,-5.5207,-5.5521,-5.555,-5.5578,-5.5676,-5.5715,-5.5253,-5.5252,-5.5251,-5.525,0,-5.4054,-5.4202,-5.4328,-5.4471,-5.4565,-5.4731,-5.4764,-5.4858,-5.4851,-5.4886,-5.5089,-5.517,-5.5313,-5.5371,-5.5365,-5.5613,-5.5576,-5.5518,-5.5406,-5.5626,-5.5718,-5.5756,-5.5266,-5.5262,-5.526,-5.5258,0,0,-5.438,-5.4528,-5.4574,-5.4639,-5.4759,-5.4874,-5.5038,-5.5178,-5.5258,-5.5361,-5.5498,-5.5694,-5.5642,-5.5721,-5.5723,-5.5836,-5.6061,-5.5765,-5.5767,-5.5816,-5.6339,-5.638,-5.6423,-5.6038,-5.6045,-5.6051,-5.6329,0,-5.4649,-5.4937,-5.495,-5.5212,-5.5349,-5.5311,-5.5454,-5.5543,-5.5582,-5.5703,-5.5745,-5.5884,-5.5804,-5.5852,-5.5962,-5.601,-5.6166,-5.5991,-5.6164,-5.6171,-5.6137,-5.6472,-5.6516,-5.6774,-5.6365,-5.6372,-5.6376,0,-5.5,-5.5115,-5.5391,-5.5492,-5.555,-5.5678,-5.5808,-5.5925,-5.6025,-5.6045,-5.6135,-5.6122,-5.6289,-5.6173,-5.6404,-5.6284,-5.6357,-5.6391,-5.6402,-5.6416,-5.6285,-5.6494,-5.6857,-5.6895,-5.6433,-5.6429,-5.6425,0,-5.5208,-5.5433,-5.5626,-5.5683,-5.5807,-5.5898,-5.5953,-5.6047,-5.6131,-5.6244,-5.6298,-5.643,-5.6502,-5.6604,-5.6627,-5.6541,-5.6858,-5.6743,-5.6878,-5.6878,-5.6944,-5.6939,-5.7322,-5.6995,-5.6994,-5.6993,-5.6992,0,-5.5505,-5.5675,-5.5722,-5.5841,-5.603,-5.6045,-5.6232,-5.6281,-5.6365,-5.6493,-5.6469,-5.6589,-5.6613,-5.6738,-5.6757,-5.6945,-5.6978,-5.6998,-5.7001,-5.6999,-5.6996,-5.7045,-5.7027,-5.7004,-5.7001,-5.6999,-5.6997,0,-5.5769,-5.5808,-5.6016,-5.6117,-5.6147,-5.6282,-5.6367,-5.6482,-5.6518,-5.668,-5.6719,-5.6775,-5.6922,-5.6955,-5.713,-5.7142,-5.7364,-5.7351,-5.733,-5.7329,-5.7461,-5.7447,-5.7886,-5.7944,-5.758,-5.7584,-5.7587,0,-5.5955,-5.6085,-5.62,-5.6285,-5.6345,-5.6481,-5.6566,-5.6586,-5.6676,-5.6802,-5.6901,-5.7045,-5.7161,-5.7397,-5.7453,-5.7586,-5.7574,-5.7719,-5.7594,-5.7588,-5.7575,-5.7566,-5.7578,-5.7742,-5.7746,-5.7749,-5.7752,0,-5.628,-5.6293,-5.6418,-5.655,-5.6653,-5.6758,-5.6858,-5.6928,-5.6962,-5.7065,-5.7214,-5.7305,-5.7483,-5.7626,-5.776,-5.7817,-5.779,-5.7791,-5.7829,-5.7828,-5.781,-5.782,-5.7393,-5.778,-5.7778,-5.7775,-5.7774,-5.7773,-5.651,-5.6623,-5.6723,-5.6862,-5.694,-5.7034,-5.7147,-5.7198,-5.7323,-5.747,-5.7475,-5.7638,-5.7736,-5.7914,-5.7979,-5.8107,-5.8062,-5.8117,-5.813,-5.8143,-5.8154,-5.7792,-5.8131,-5.8131,-5.813,-5.8129,-5.8129,0,-5.6832,-5.6894,-5.7023,-5.7164,-5.7275,-5.7242,-5.7351,-5.7445,-5.7589,-5.7684,-5.7799,-5.7971,-5.8111,-5.8179,-5.8317,-5.8406,-5.8397,-5.8441,-5.8433,-5.8447,-5.8187,-5.814,-5.8446,-5.8446,-5.8446,-5.8446,-5.8446,-5.8445,-5.7012,-5.7203,-5.7228,-5.7457,-5.7518,-5.7679,-5.7744,-5.7831,-5.7906,-5.81,-5.8216,-5.826,-5.8344,-5.8488,-5.8614,-5.8631,-5.8682,-5.8731,-5.8742,-5.8498,-5.8465,-5.8434,-5.839,-5.8743,-5.8743,-5.899,-5.8993,-5.8994]},{"header":{"parameterUnit":"m.s-1","parameterCategory":1,"la1":30.2991,"la2":30.254,"lo1":-89.0895,"lo2":-89.0444,"dy":0.0017,"dx":0.0017,"nx":28,"ny":28,"refTime":"2025-08-31T21:00:00:Z","depth":0,"parameterNumber":3,"parameterNumberName":"V-component_of_WINDS"},"data":[0,0,0,0,0,0,0,0,0,0,0,0,0,0,0,0,0,0,0,0,0,0,0,0,0,0,0,0,0,0,0,0,0,0,0,0,0,0,0,0,0,0,0,0,0,0,0,0,0,0,0,0,0,0,0,0,0,0,-0.3009,-0.3008,0,-0.293,-0.2929,-0.2928,-0.2899,-0.29,-0.29,-0.29,-0.2824,-0.2821,-0.2819,0,0,0,0,0,0,0,0,0,0,0,0,0,-0.3137,-0.3134,-0.3009,-0.3008,-0.3007,-0.293,-0.2929,-0.2928,-0.2899,-0.29,-0.29,-0.29,-0.2824,-0.2822,-0.2819,0,0,0,0,0,0,0,0,0,0,0,0,0,-0.3072,-0.3134,-0.3009,-0.2983,-0.298,-0.2931,-0.2929,-0.2928,-0.2899,-0.29,-0.29,-0.29,-0.2825,-0.2822,-0.2819,-0.279,0,0,-0.2808,-0.2807,0,0,0,0,0,0,0,0,-0.3076,-0.3067,-0.2988,-0.2985,-0.2981,-0.2925,-0.2946,-0.2882,-0.2899,-0.293,-0.29,-0.2901,-0.2857,-0.2851,-0.2836,-0.2787,-0.2783,-0.2808,-0.2806,-0.2804,-0.2804,0,0,0,0,0,0,0,-0.308,-0.3071,-0.2978,-0.2987,-0.2983,-0.2976,-0.2968,-0.2934,-0.2893,-0.2927,-0.2925,-0.2916,-0.2856,-0.2839,-0.2834,-0.2782,-0.2808,-0.2805,-0.2803,-0.2802,-0.2705,-0.2704,0,0,0,0,0,0,-0.3089,-0.3074,-0.298,-0.2976,-0.303,-0.2974,-0.2964,-0.2943,-0.2893,-0.2886,-0.2916,-0.2915,-0.2845,-0.2838,-0.2831,-0.2794,-0.2804,-0.2801,-0.2799,-0.2705,-0.2705,-0.2704,0,0,0,0,0,0,-0.3091,-0.308,-0.2984,-0.3024,-0.3011,-0.2971,-0.2948,-0.2941,-0.2925,-0.2884,-0.2877,-0.2906,-0.2845,-0.2836,-0.28,-0.2791,-0.28,-0.2797,-0.2706,-0.2705,-0.2704,-0.2719,0,0,0,0,0,0,-0.3095,-0.3082,-0.307,-0.3024,-0.3009,-0.2953,-0.2947,-0.2939,-0.2918,-0.2916,-0.2873,-0.2867,-0.2844,-0.2805,-0.2797,-0.2786,-0.2794,-0.2707,-0.2706,-0.2705,-0.272,-0.2719,-0.2719,0,0,0,0,0,-0.31,-0.3079,-0.3069,-0.3058,-0.2994,-0.2953,-0.2944,-0.2918,-0.2918,-0.2906,-0.288,-0.2868,-0.2793,-0.2802,-0.2792,-0.278,-0.2707,-0.2706,-0.2705,-0.272,-0.2719,-0.2719,0,0,0,0,0,0,-0.3126,-0.3072,-0.3062,-0.3025,-0.2993,-0.2948,-0.2932,-0.2918,-0.2888,-0.2887,-0.2857,-0.2848,-0.2814,-0.2794,-0.2805,-0.275,-0.2749,-0.2746,-0.2764,-0.2763,-0.2763,-0.2769,-0.2791,0,0,0,0,0,-0.3127,-0.3097,-0.3052,-0.3024,-0.3008,-0.2973,-0.2954,-0.2936,-0.2903,-0.289,-0.2861,-0.2831,-0.28,-0.2781,-0.275,-0.2716,-0.2706,-0.2703,-0.2703,-0.2703,-0.2701,-0.268,-0.2678,-0.27,-0.27,-0.27,0,0,-0.313,-0.3097,-0.308,-0.3028,-0.3002,-0.2972,-0.2962,-0.2932,-0.2909,-0.2886,-0.285,-0.2828,-0.2791,-0.2756,-0.2739,-0.2738,-0.2692,-0.2701,-0.2702,-0.2699,-0.2679,-0.2677,-0.2675,-0.2699,-0.2699,-0.27,0,0,-0.312,-0.3092,-0.3064,-0.3037,-0.2997,-0.2973,-0.2966,-0.2922,-0.2906,-0.2869,-0.285,-0.2824,-0.2772,-0.2747,-0.2727,-0.2705,-0.2693,-0.2696,-0.2694,-0.2675,-0.2673,-0.2671,-0.2663,-0.2661,-0.2694,-0.2694,-0.2694,0,-0.3129,-0.3082,-0.3052,-0.3022,-0.2999,-0.2975,-0.2947,-0.2923,-0.2875,-0.2861,-0.286,-0.2793,-0.2767,-0.2725,-0.2719,-0.2704,-0.2696,-0.2701,-0.2675,-0.2674,-0.2672,-0.2663,-0.266,-0.2694,-0.2694,-0.2694,-0.2694,0,-0.3094,-0.3062,-0.3045,-0.2997,-0.2973,-0.2945,-0.2911,-0.289,-0.2874,-0.2851,-0.2813,-0.278,-0.2742,-0.2731,-0.2716,-0.2687,-0.2687,-0.2681,-0.268,-0.267,-0.2662,-0.2659,-0.2695,-0.2695,-0.2695,-0.2695,0,0,-0.31,-0.3034,-0.3028,-0.3006,-0.2958,-0.2933,-0.2903,-0.2864,-0.2847,-0.2815,-0.2789,-0.2744,-0.2738,-0.2716,-0.2698,-0.268,-0.2664,-0.2676,-0.2675,-0.2675,-0.2629,-0.2633,-0.263,-0.2656,-0.2655,-0.2655,-0.2632,0,-0.3082,-0.3026,-0.2998,-0.2954,-0.2924,-0.2899,-0.2873,-0.2841,-0.2818,-0.279,-0.2765,-0.2734,-0.2728,-0.2714,-0.2696,-0.267,-0.2655,-0.2671,-0.2632,-0.2631,-0.2642,-0.2626,-0.2631,-0.2611,-0.2628,-0.2628,-0.2628,0,-0.3055,-0.3021,-0.2973,-0.2928,-0.2914,-0.2891,-0.2852,-0.2825,-0.2789,-0.2773,-0.2747,-0.2729,-0.2697,-0.2698,-0.2654,-0.2666,-0.2648,-0.2633,-0.2631,-0.2627,-0.2629,-0.2621,-0.2604,-0.2601,-0.2622,-0.2623,-0.2623,0,-0.3063,-0.3005,-0.2968,-0.295,-0.2896,-0.288,-0.2858,-0.2821,-0.2799,-0.2766,-0.2752,-0.2716,-0.2696,-0.2669,-0.2642,-0.2645,-0.26,-0.2599,-0.2587,-0.2587,-0.2578,-0.2579,-0.2559,-0.2567,-0.2567,-0.2568,-0.2568,0,-0.3047,-0.3019,-0.2971,-0.2949,-0.2916,-0.2884,-0.2854,-0.2829,-0.2797,-0.277,-0.2747,-0.2723,-0.2688,-0.2659,-0.2638,-0.2604,-0.2596,-0.2583,-0.2577,-0.2584,-0.2586,-0.2573,-0.2573,-0.2567,-0.2567,-0.2567,-0.2567,0,-0.305,-0.3017,-0.2976,-0.2927,-0.2914,-0.2893,-0.2852,-0.283,-0.2805,-0.2771,-0.2761,-0.2723,-0.2688,-0.2657,-0.2612,-0.2597,-0.2562,-0.2556,-0.2574,-0.2571,-0.256,-0.2562,-0.253,-0.2524,-0.2537,-0.2537,-0.2537,0,-0.3042,-0.3019,-0.2968,-0.2947,-0.2924,-0.2891,-0.2868,-0.2836,-0.2813,-0.2768,-0.2752,-0.2714,-0.2683,-0.2628,-0.2597,-0.2562,-0.2554,-0.2545,-0.2549,-0.2556,-0.2554,-0.2555,-0.2553,-0.2546,-0.2546,-0.2546,-0.2546,0,-0.3031,-0.3015,-0.2981,-0.2942,-0.2914,-0.2882,-0.2849,-0.2834,-0.2795,-0.2771,-0.2733,-0.2708,-0.2661,-0.2624,-0.2585,-0.2563,-0.2548,-0.2545,-0.254,-0.2547,-0.2558,-0.2551,-0.2574,-0.2546,-0.2546,-0.2546,-0.2546,-0.2546,-0.3028,-0.3006,-0.2965,-0.2929,-0.29,-0.2869,-0.2846,-0.2817,-0.2785,-0.2742,-0.2725,-0.2687,-0.265,-0.2596,-0.2573,-0.2544,-0.2542,-0.2535,-0.2533,-0.2532,-0.2533,-0.2562,-0.2537,-0.2537,-0.2537,-0.2537,-0.2537,0,-0.3015,-0.2987,-0.2953,-0.2907,-0.2878,-0.2864,-0.2827,-0.2804,-0.277,-0.2736,-0.2705,-0.2662,-0.2626,-0.2591,-0.2554,-0.2537,-0.2529,-0.2528,-0.2529,-0.2524,-0.2537,-0.2545,-0.2535,-0.2535,-0.2535,-0.2535,-0.2535,-0.2535,-0.3005,-0.2967,-0.2946,-0.2893,-0.2866,-0.2827,-0.2807,-0.2779,-0.2751,-0.2704,-0.2673,-0.265,-0.2616,-0.2575,-0.2542,-0.2532,-0.252,-0.252,-0.251,-0.2523,-0.2523,-0.2524,-0.2531,-0.2518,-0.2518,-0.2499,-0.2498,-0.2498]}]]